| time (UTC) | temp F | wind direction | speed MPH | gust MPH | rain 1hr in | rain 24hr in | rain mn in | humidity % | barometer mb |
| 20260507194536 | 45 | 136 | 0.0 | 2.0 | 0.00 | 0.00 | 0.00 | 83 | 1019.2 |
| 20260507193100 | 46 | 137 | 0.0 | 1.0 | 0.00 | 0.00 | 0.00 | 82 | 1019.0 |
| 20260507191530 | 47 | 137 | 0.0 | 1.0 | 0.00 | 0.00 | 0.00 | 80 | 1018.9 |
| 20260507190034 | 48 | 136 | 0.0 | 0.0 | 0.00 | 0.00 | 0.00 | 79 | 1018.9 |
| 20260507184528 | 48 | 137 | 0.0 | 2.0 | 0.00 | 0.00 | 0.00 | 79 | 1018.8 |
| 20260507183036 | 49 | 136 | 0.0 | 3.0 | 0.00 | 0.00 | 0.00 | 79 | 1018.8 |
| 20260507181525 | 49 | 136 | 1.0 | 5.0 | 0.00 | 0.00 | 0.00 | 78 | 1018.7 |
| 20260507180019 | 50 | 133 | 1.0 | 4.0 | 0.00 | 0.00 | 0.00 | 77 | 1018.6 |
| 20260507174519 | 50 | 134 | 3.0 | 5.0 | 0.00 | 0.00 | 0.00 | 76 | 1018.6 |
| 20260507173019 | 51 | 138 | 3.0 | 5.0 | 0.00 | 0.00 | 0.00 | 73 | 1018.5 |
| 20260507171510 | 52 | 130 | 3.0 | 5.0 | 0.00 | 0.00 | 0.00 | 71 | 1018.4 |
| 20260507170010 | 52 | 137 | 2.0 | 5.0 | 0.00 | 0.00 | 0.00 | 70 | 1018.3 |
| 20260507164508 | 52 | 143 | 2.0 | 7.0 | 0.00 | 0.00 | 0.00 | 71 | 1018.3 |
| 20260507163005 | 53 | 128 | 4.0 | 8.0 | 0.00 | 0.00 | 0.00 | 70 | 1018.3 |
| 20260507161504 | 53 | 141 | 6.0 | 9.0 | 0.00 | 0.00 | 0.00 | 67 | 1018.4 |
| 20260507160004 | 55 | 130 | 5.0 | 9.0 | 0.00 | 0.00 | 0.00 | 63 | 1018.4 |
| 20260507154502 | 56 | 68 | 2.0 | 6.0 | 0.00 | 0.00 | 0.00 | 62 | 1018.3 |
| 20260507153002 | 56 | 68 | 3.0 | 5.0 | 0.00 | 0.00 | 0.00 | 61 | 1018.3 |
| 20260507151600 | 57 | 51 | 4.0 | 9.0 | 0.00 | 0.00 | 0.00 | 60 | 1018.3 |
| 20260507150100 | 57 | 53 | 3.0 | 6.0 | 0.00 | 0.00 | 0.00 | 59 | 1018.4 |
| 20260507144605 | 57 | 58 | 3.0 | 7.0 | 0.00 | 0.00 | 0.00 | 60 | 1018.3 |
| 20260507143101 | 57 | 59 | 3.0 | 5.0 | 0.00 | 0.00 | 0.00 | 59 | 1018.4 |
| 20260507141618 | 56 | 155 | 1.0 | 7.0 | 0.00 | 0.00 | 0.00 | 60 | 1018.4 |
| 20260507140100 | 56 | 88 | 4.0 | 8.0 | 0.00 | 0.00 | 0.00 | 60 | 1018.4 |
| 20260507134601 | 56 | 152 | 0.0 | 8.0 | 0.00 | 0.00 | 0.00 | 60 | 1018.4 |
| 20260507133050 | 56 | 75 | 1.0 | 8.0 | 0.00 | 0.00 | 0.00 | 59 | 1018.5 |
| 20260507131550 | 57 | 74 | 1.0 | 6.0 | 0.00 | 0.00 | 0.00 | 55 | 1018.4 |
| 20260507130056 | 56 | 61 | 4.0 | 10.0 | 0.00 | 0.00 | 0.00 | 57 | 1018.4 |
| 20260507124554 | 57 | 48 | 4.0 | 10.0 | 0.00 | 0.00 | 0.00 | 57 | 1018.4 |
| 20260507123054 | 56 | 79 | 4.0 | 9.0 | 0.00 | 0.00 | 0.00 | 56 | 1018.3 |
| 20260507121551 | 56 | 51 | 5.0 | 9.0 | 0.00 | 0.00 | 0.00 | 56 | 1018.3 |
| 20260507120038 | 56 | 57 | 4.0 | 7.0 | 0.00 | 0.00 | 0.00 | 55 | 1018.3 |
| 20260507114536 | 55 | 57 | 5.0 | 9.0 | 0.00 | 0.00 | 0.00 | 56 | 1018.2 |
| 20260507113034 | 55 | 94 | 5.0 | 10.0 | 0.00 | 0.00 | 0.00 | 58 | 1018.3 |
| 20260507111537 | 55 | 55 | 6.0 | 12.0 | 0.00 | 0.00 | 0.00 | 58 | 1018.3 |
| 20260507110035 | 54 | 54 | 7.0 | 11.0 | 0.00 | 0.00 | 0.00 | 57 | 1018.3 |
| 20260507104534 | 54 | 60 | 6.0 | 12.0 | 0.00 | 0.00 | 0.00 | 57 | 1018.2 |
| 20260507103035 | 53 | 86 | 6.0 | 11.0 | 0.00 | 0.00 | 0.00 | 59 | 1018.1 |
| 20260507101532 | 53 | 55 | 8.0 | 13.0 | 0.00 | 0.00 | 0.00 | 59 | 1018.1 |
| 20260507100047 | 52 | 42 | 7.0 | 13.0 | 0.00 | 0.00 | 0.00 | 58 | 1017.9 |
| 20260507094547 | 52 | 62 | 10.0 | 14.0 | 0.00 | 0.00 | 0.00 | 57 | 1017.8 |
| 20260507093046 | 51 | 70 | 11.0 | 14.0 | 0.00 | 0.00 | 0.00 | 58 | 1017.8 |
| 20260507091546 | 51 | 72 | 10.0 | 15.0 | 0.00 | 0.00 | 0.00 | 56 | 1017.7 |
| 20260507090045 | 51 | 61 | 10.0 | 14.0 | 0.00 | 0.00 | 0.00 | 54 | 1017.7 |
| 20260507084546 | 51 | 71 | 10.0 | 14.0 | 0.00 | 0.00 | 0.00 | 52 | 1017.7 |
| 20260507083047 | 51 | 64 | 10.0 | 14.0 | 0.00 | 0.00 | 0.00 | 49 | 1017.6 |
| 20260507081543 | 50 | 71 | 7.0 | 14.0 | 0.00 | 0.00 | 0.00 | 51 | 1017.5 |
| 20260507080039 | 50 | 65 | 4.0 | 13.0 | 0.00 | 0.00 | 0.00 | 56 | 1017.3 |
| 20260507074535 | 50 | 60 | 7.0 | 11.0 | 0.00 | 0.00 | 0.00 | 50 | 1017.1 |
| 20260507073034 | 49 | 61 | 7.0 | 12.0 | 0.00 | 0.00 | 0.00 | 49 | 1017.1 |
| 20260507071533 | 48 | 57 | 4.0 | 6.0 | 0.00 | 0.00 | 0.00 | 51 | 1017.1 |
| 20260507070030 | 48 | 34 | 5.0 | 11.0 | 0.00 | 0.00 | 0.00 | 46 | 1017.0 |
| 20260507064529 | 47 | 38 | 6.0 | 11.0 | 0.00 | 0.00 | 0.00 | 48 | 1016.8 |
| 20260507063031 | 46 | 37 | 5.0 | 11.0 | 0.00 | 0.00 | 0.00 | 50 | 1016.8 |
| 20260507061529 | 44 | 44 | 5.0 | 11.0 | 0.00 | 0.00 | 0.00 | 54 | 1016.8 |
| 20260507060026 | 43 | 43 | 2.0 | 5.0 | 0.00 | 0.00 | 0.00 | 56 | 1016.7 |
| 20260507054524 | 42 | 17 | 1.0 | 5.0 | 0.00 | 0.00 | 0.00 | 58 | 1016.6 |
| 20260507053024 | 41 | 10 | 2.0 | 5.0 | 0.00 | 0.00 | 0.00 | 59 | 1016.5 |
| 20260507051522 | 39 | 22 | 3.0 | 9.0 | 0.00 | 0.00 | 0.00 | 63 | 1016.4 |
| 20260507050036 | 37 | 19 | 2.0 | 6.0 | 0.00 | 0.00 | 0.00 | 67 | 1016.3 |
| 20260507044529 | 36 | 278 | 1.0 | 5.0 | 0.00 | 0.00 | 0.00 | 70 | 1016.2 |
| 20260507043027 | 35 | 287 | 1.0 | 5.0 | 0.00 | 0.00 | 0.00 | 71 | 1016.1 |
| 20260507041542 | 35 | 268 | 2.0 | 4.0 | 0.00 | 0.00 | 0.00 | 71 | 1016.0 |
| 20260507040016 | 35 | 360 | 1.0 | 4.0 | 0.00 | 0.00 | 0.00 | 70 | 1015.9 |
| 20260507034515 | 35 | 268 | 1.0 | 4.0 | 0.00 | 0.00 | 0.00 | 70 | 1015.7 |
| 20260507033014 | 35 | 264 | 1.0 | 4.0 | 0.00 | 0.00 | 0.00 | 69 | 1015.6 |
| 20260507031511 | 35 | 5 | 1.0 | 3.0 | 0.00 | 0.00 | 0.00 | 69 | 1015.5 |
| 20260507030012 | 36 | 5 | 1.0 | 6.0 | 0.00 | 0.00 | 0.00 | 69 | 1015.4 |
| 20260507024510 | 36 | 265 | 1.0 | 5.0 | 0.00 | 0.00 | 0.00 | 69 | 1015.4 |
| 20260507023008 | 37 | 268 | 1.0 | 3.0 | 0.00 | 0.00 | 0.00 | 67 | 1015.2 |
| 20260507021505 | 37 | 36 | 2.0 | 5.0 | 0.00 | 0.00 | 0.00 | 64 | 1015.2 |
| 20260507020006 | 37 | 11 | 0.0 | 2.0 | 0.00 | 0.00 | 0.00 | 63 | 1015.1 |
| 20260507014510 | 38 | 11 | 0.0 | 2.0 | 0.00 | 0.00 | 0.00 | 62 | 1015.0 |
| 20260507013115 | 39 | 12 | 0.0 | 3.0 | 0.00 | 0.00 | 0.00 | 61 | 1014.9 |
| 20260507011557 | 40 | 290 | 1.0 | 2.0 | 0.00 | 0.00 | 0.00 | 59 | 1014.8 |
| 20260507010003 | 40 | 9 | 1.0 | 5.0 | 0.00 | 0.00 | 0.00 | 57 | 1014.7 |
| 20260507004600 | 40 | 247 | 1.0 | 9.0 | 0.00 | 0.00 | 0.00 | 55 | 1014.7 |
| 20260507003059 | 40 | 296 | 1.0 | 7.0 | 0.00 | 0.00 | 0.00 | 55 | 1014.6 |
| 20260507001620 | 41 | 5 | 1.0 | 5.0 | 0.00 | 0.00 | 0.00 | 55 | 1014.5 |
| 20260507000042 | 42 | 242 | 1.0 | 5.0 | 0.00 | 0.00 | 0.00 | 55 | 1014.4 |
| 20260506234539 | 42 | 244 | 3.0 | 7.0 | 0.00 | 0.00 | 0.00 | 52 | 1014.3 |
| 20260506233043 | 42 | 246 | 3.0 | 7.0 | 0.00 | 0.00 | 0.00 | 51 | 1014.3 |
| 20260506231540 | 42 | 262 | 2.0 | 6.0 | 0.00 | 0.00 | 0.00 | 51 | 1014.2 |
| 20260506230044 | 43 | 264 | 3.0 | 10.0 | 0.00 | 0.00 | 0.00 | 51 | 1014.2 |
| 20260506224542 | 43 | 248 | 4.0 | 11.0 | 0.00 | 0.00 | 0.00 | 50 | 1014.0 |
| 20260506223051 | 43 | 263 | 4.0 | 9.0 | 0.00 | 0.00 | 0.00 | 51 | 1014.0 |
| 20260506221537 | 44 | 258 | 2.0 | 7.0 | 0.00 | 0.00 | 0.00 | 49 | 1014.0 |
| 20260506220030 | 45 | 237 | 4.0 | 12.0 | 0.00 | 0.00 | 0.00 | 48 | 1013.8 |
| 20260506214528 | 45 | 225 | 6.0 | 12.0 | 0.00 | 0.00 | 0.00 | 47 | 1013.6 |
| 20260506213026 | 45 | 262 | 6.0 | 12.0 | 0.00 | 0.00 | 0.00 | 47 | 1013.5 |
| 20260506211524 | 46 | 259 | 7.0 | 14.0 | 0.00 | 0.00 | 0.00 | 46 | 1013.3 |
| 20260506210021 | 46 | 232 | 9.0 | 15.0 | 0.00 | 0.00 | 0.00 | 46 | 1013.3 |
| 20260506204519 | 46 | 238 | 7.0 | 12.0 | 0.00 | 0.00 | 0.00 | 47 | 1013.2 |
| 20260506203021 | 47 | 238 | 8.0 | 14.0 | 0.00 | 0.00 | 0.00 | 47 | 1013.1 |
| 20260506201513 | 48 | 229 | 6.0 | 12.0 | 0.00 | 0.00 | 0.00 | 46 | 1013.0 |
| 20260506200015 | 48 | 235 | 6.0 | 14.0 | 0.00 | 0.00 | 0.00 | 45 | 1013.0 |